[[{"header":{"parameterUnit":"m.s-1","parameterCategory":1,"la1":30.2991,"la2":30.254,"lo1":-89.0895,"lo2":-89.0444,"dy":0.0017,"dx":0.0017,"nx":28,"ny":28,"refTime":"2024-07-18T09:00:00:Z","depth":0,"parameterNumber":2,"parameterNumberName":"U-component_of_WINDS"},"data":[0,0,0,0,0,0,0,0,0,0,0,0,0,0,0,0,0,0,0,0,0,0,0,0,0,0,0,0,0,0,0,0,0,0,0,0,0,0,0,0,0,0,0,0,0,0,0,0,0,0,0,0,0,0,0,0,0,0,3.7389,3.7388,0,3.7322,3.7321,3.7321,3.7213,3.7211,3.7209,3.7208,3.7142,3.7142,3.7142,0,0,0,0,0,0,0,0,0,0,0,0,0,3.7423,3.7423,3.7389,3.7388,3.7387,3.7322,3.7321,3.732,3.7214,3.7211,3.7209,3.7207,3.7142,3.7142,3.7142,0,0,0,0,0,0,0,0,0,0,0,0,0,3.7388,3.7423,3.7389,3.7326,3.732,3.7322,3.7321,3.732,3.7214,3.7211,3.7208,3.7205,3.7141,3.7142,3.7142,3.7201,0,0,3.7142,3.7142,0,0,0,0,0,0,0,0,3.739,3.7387,3.7336,3.733,3.7323,3.7273,3.7309,3.728,3.7215,3.7254,3.7207,3.7204,3.7188,3.7184,3.7178,3.7198,3.7195,3.7142,3.7142,3.7142,3.7142,0,0,0,0,0,0,0,3.7392,3.7389,3.7362,3.7336,3.7328,3.7301,3.7293,3.7303,3.7239,3.7251,3.7243,3.7236,3.7184,3.7178,3.7176,3.7194,3.7142,3.7142,3.7142,3.7142,3.7255,3.7257,0,0,0,0,0,0,3.7404,3.7392,3.7365,3.736,3.735,3.7303,3.7293,3.7292,3.7238,3.7227,3.7239,3.7231,3.7179,3.7176,3.7173,3.7235,3.7142,3.7142,3.7142,3.7252,3.7255,3.7258,0,0,0,0,0,0,3.7405,3.7403,3.7367,3.7374,3.7367,3.7305,3.7305,3.7292,3.7286,3.7229,3.7217,3.7245,3.7177,3.7173,3.7194,3.7231,3.7142,3.7142,3.7248,3.7253,3.7257,3.7363,0,0,0,0,0,0,3.7407,3.7404,3.7426,3.7375,3.7367,3.739,3.7307,3.7293,3.7287,3.7276,3.7231,3.7221,3.7174,3.7194,3.7194,3.723,3.7142,3.7245,3.725,3.7255,3.7356,3.737,3.7383,0,0,0,0,0,3.7408,3.7461,3.7428,3.7425,3.7394,3.7392,3.7388,3.7332,3.729,3.7312,3.7274,3.7223,3.7228,3.7197,3.7196,3.7233,3.7242,3.7249,3.7255,3.735,3.7368,3.7383,0,0,0,0,0,0,3.752,3.7453,3.7416,3.7453,3.7429,3.7374,3.74,3.7353,3.7341,3.7332,3.7264,3.7255,3.7284,3.7261,3.7228,3.7285,3.7227,3.7233,3.7299,3.7316,3.7329,3.7333,3.7143,0,0,0,0,0,3.7548,3.7552,3.7494,3.7532,3.7522,3.7463,3.746,3.7419,3.7391,3.7381,3.7345,3.7321,3.7316,3.7315,3.7308,3.7352,3.7339,3.7377,3.739,3.7402,3.7408,3.7425,3.744,3.728,3.728,3.728,0,0,3.7608,3.7572,3.7579,3.7553,3.753,3.7534,3.7455,3.7465,3.7467,3.7383,3.7399,3.7372,3.734,3.7371,3.7384,3.7353,3.7449,3.741,3.742,3.7419,3.7433,3.7449,3.7462,3.7285,3.7284,3.7283,0,0,3.7719,3.7693,3.772,3.7697,3.7661,3.7621,3.7628,3.7579,3.7557,3.7572,3.7507,3.7509,3.7504,3.7482,3.7471,3.7569,3.752,3.7569,3.7639,3.7657,3.767,3.768,3.7712,3.7725,3.7575,3.7576,3.7576,0,3.7798,3.7802,3.774,3.7752,3.7741,3.7663,3.7688,3.767,3.7634,3.7628,3.7594,3.7583,3.7556,3.7579,3.7603,3.7598,3.7601,3.7573,3.7673,3.7683,3.7692,3.7721,3.7734,3.7581,3.7581,3.758,3.758,0,3.7898,3.7902,3.7928,3.7893,3.7886,3.7905,3.7845,3.7845,3.7803,3.7766,3.7781,3.7745,3.7728,3.7731,3.7692,3.7747,3.7729,3.7685,3.7625,3.7714,3.774,3.7751,3.759,3.7588,3.7586,3.7585,0,0,3.8079,3.8006,3.8017,3.7998,3.7951,3.7952,3.7967,3.7948,3.7947,3.7925,3.7934,3.7929,3.7887,3.7874,3.7831,3.7847,3.7922,3.78,3.7798,3.7821,3.7977,3.8009,3.8023,3.789,3.7892,3.7893,3.7978,0,3.8178,3.8197,3.814,3.8174,3.8174,3.8098,3.811,3.8082,3.8048,3.8043,3.8005,3.8001,3.7947,3.7938,3.795,3.7911,3.7952,3.7904,3.7895,3.7896,3.7903,3.8037,3.8071,3.8154,3.7989,3.7991,3.7992,0,3.8296,3.8277,3.831,3.8256,3.8255,3.8267,3.8242,3.8239,3.8205,3.8178,3.8162,3.8111,3.812,3.8063,3.8072,3.8041,3.8034,3.8013,3.8015,3.801,3.7948,3.8033,3.8179,3.819,3.8008,3.8007,3.8006,0,3.842,3.8403,3.8419,3.8405,3.8345,3.8354,3.833,3.8292,3.8283,3.8262,3.8255,3.8237,3.8226,3.8212,3.8157,3.8121,3.8172,3.8111,3.8148,3.8149,3.8161,3.8161,3.8305,3.8161,3.8161,3.8161,3.816,0,3.8535,3.8558,3.8473,3.8483,3.8504,3.8438,3.8461,3.8429,3.8396,3.8397,3.8331,3.8334,3.8262,3.8256,3.8213,3.8225,3.8222,3.82,3.8187,3.8204,3.8206,3.8197,3.8189,3.8164,3.8163,3.8163,3.8162,0,3.8678,3.8622,3.8634,3.8574,3.8559,3.8578,3.8526,3.8532,3.8492,3.8494,3.8491,3.8429,3.8418,3.8361,3.8339,3.8309,3.8336,3.8314,3.8347,3.8338,3.8377,3.8373,3.8518,3.8532,3.8383,3.8385,3.8386,0,3.8754,3.8768,3.8709,3.8704,3.8682,3.8676,3.8665,3.86,3.8591,3.855,3.8561,3.8544,3.8527,3.8513,3.8466,3.8447,3.8422,3.8474,3.8418,3.8433,3.8418,3.8417,3.8417,3.8485,3.8487,3.8489,3.849,0,3.8893,3.8864,3.8851,3.8826,3.8815,3.8793,3.8768,3.8768,3.8695,3.8688,3.8675,3.8662,3.8636,3.862,3.8592,3.8565,3.8515,3.8508,3.8514,3.8531,3.8548,3.8535,3.8376,3.8505,3.8503,3.8502,3.8501,3.8501,3.9002,3.901,3.8968,3.8955,3.8928,3.8904,3.8905,3.8864,3.8852,3.8824,3.8787,3.8778,3.8739,3.8696,3.8674,3.8665,3.8637,3.8648,3.865,3.8653,3.866,3.8551,3.866,3.866,3.8659,3.8659,3.8658,0,3.9136,3.9104,3.9092,3.9057,3.9045,3.8997,3.8965,3.8959,3.8951,3.8919,3.8902,3.8886,3.8868,3.8818,3.8795,3.8797,3.8773,3.8793,3.8791,3.8785,3.8688,3.8683,3.8813,3.8813,3.8813,3.8813,3.8813,3.8813,3.9204,3.9213,3.9178,3.9172,3.914,3.913,3.9115,3.9092,3.9066,3.9049,3.9034,3.9,3.896,3.8933,3.8914,3.8899,3.8893,3.892,3.8898,3.8808,3.8793,3.8779,3.8773,3.892,3.892,3.8994,3.8995,3.8996]},{"header":{"parameterUnit":"m.s-1","parameterCategory":1,"la1":30.2991,"la2":30.254,"lo1":-89.0895,"lo2":-89.0444,"dy":0.0017,"dx":0.0017,"nx":28,"ny":28,"refTime":"2024-07-18T09:00:00:Z","depth":0,"parameterNumber":3,"parameterNumberName":"V-component_of_WINDS"},"data":[0,0,0,0,0,0,0,0,0,0,0,0,0,0,0,0,0,0,0,0,0,0,0,0,0,0,0,0,0,0,0,0,0,0,0,0,0,0,0,0,0,0,0,0,0,0,0,0,0,0,0,0,0,0,0,0,0,0,5.5093,5.5093,0,5.5095,5.5095,5.5095,5.5053,5.5052,5.5051,5.505,5.5051,5.5052,5.5053,0,0,0,0,0,0,0,0,0,0,0,0,0,5.5053,5.5054,5.5093,5.5093,5.5093,5.5095,5.5095,5.5095,5.5053,5.5052,5.5051,5.5049,5.505,5.5051,5.5053,0,0,0,0,0,0,0,0,0,0,0,0,0,5.5064,5.5054,5.5093,5.5073,5.5071,5.5095,5.5095,5.5095,5.5054,5.5052,5.505,5.5049,5.505,5.5051,5.5053,5.5096,0,0,5.5058,5.5058,0,0,0,0,0,0,0,0,5.5064,5.5066,5.5076,5.5074,5.5072,5.5072,5.5081,5.5095,5.5054,5.506,5.505,5.5048,5.5059,5.506,5.5064,5.5096,5.5096,5.5058,5.5059,5.506,5.506,0,0,0,0,0,0,0,5.5063,5.5065,5.5094,5.5076,5.5074,5.5063,5.5063,5.5084,5.5069,5.5059,5.5056,5.5057,5.5058,5.5062,5.5063,5.5096,5.5058,5.5059,5.506,5.5061,5.5164,5.5166,0,0,0,0,0,0,5.5065,5.5065,5.5094,5.5094,5.5064,5.5065,5.5065,5.5074,5.5069,5.5066,5.5059,5.5055,5.506,5.5062,5.5063,5.5113,5.506,5.5061,5.5062,5.5162,5.5165,5.5167,0,0,0,0,0,0,5.5064,5.5068,5.5094,5.5079,5.5081,5.5068,5.5078,5.5075,5.5079,5.5068,5.5065,5.5066,5.5059,5.5061,5.5088,5.5112,5.5062,5.5063,5.516,5.5163,5.5166,5.5213,0,0,0,0,0,0,5.5063,5.5068,5.5084,5.5079,5.5082,5.5119,5.508,5.5076,5.5082,5.5078,5.5074,5.5072,5.5058,5.5086,5.509,5.5114,5.5064,5.5158,5.5162,5.5165,5.5209,5.5217,5.5224,0,0,0,0,0,5.5062,5.5098,5.5085,5.5089,5.5102,5.512,5.5122,5.5105,5.5084,5.51,5.5093,5.5072,5.511,5.5089,5.5093,5.5118,5.5156,5.5161,5.5164,5.5206,5.5215,5.5223,0,0,0,0,0,0,5.5105,5.5096,5.5083,5.5118,5.512,5.5113,5.5133,5.5116,5.5124,5.512,5.5099,5.5098,5.5129,5.5126,5.5104,5.5159,5.5129,5.5134,5.5159,5.5168,5.5175,5.5174,5.5066,0,0,0,0,0,5.5119,5.5134,5.5126,5.5158,5.516,5.5147,5.5154,5.5141,5.5142,5.5143,5.5138,5.514,5.5152,5.516,5.5171,5.5209,5.5207,5.5228,5.5235,5.5241,5.5245,5.5265,5.5274,5.518,5.518,5.518,0,0,5.5147,5.5144,5.5155,5.5166,5.5166,5.5183,5.5147,5.5166,5.5178,5.5146,5.5171,5.5168,5.5168,5.5201,5.5216,5.52,5.5271,5.5247,5.5251,5.5252,5.527,5.5279,5.5287,5.5183,5.5182,5.5182,0,0,5.5205,5.5206,5.5231,5.5233,5.5234,5.5226,5.5232,5.5228,5.5225,5.525,5.5226,5.524,5.5261,5.5263,5.5266,5.5328,5.5308,5.5332,5.5369,5.5388,5.5395,5.5402,5.5422,5.543,5.5336,5.5336,5.5336,0,5.524,5.5263,5.5247,5.5267,5.5273,5.5246,5.5271,5.5274,5.5278,5.5282,5.5266,5.5292,5.5291,5.5323,5.5338,5.5343,5.5349,5.5331,5.5396,5.5402,5.5408,5.5427,5.5435,5.5339,5.5339,5.5338,5.5338,0,5.5305,5.5322,5.5343,5.5349,5.5357,5.538,5.5366,5.5377,5.5364,5.5357,5.5383,5.5381,5.539,5.5398,5.5385,5.5428,5.5419,5.5399,5.5368,5.542,5.5437,5.5445,5.5343,5.5342,5.5341,5.5341,0,0,5.5389,5.5386,5.5394,5.5396,5.5396,5.5409,5.5431,5.5441,5.5449,5.5454,5.5471,5.5491,5.5473,5.5477,5.5465,5.5482,5.553,5.5461,5.546,5.5472,5.5576,5.5589,5.5598,5.5518,5.5519,5.552,5.5575,0,5.5445,5.5482,5.5468,5.5506,5.5522,5.5497,5.5516,5.5518,5.5513,5.5525,5.5519,5.5532,5.5509,5.5511,5.5527,5.552,5.555,5.5517,5.5532,5.5533,5.5531,5.5608,5.5622,5.5674,5.5582,5.5584,5.5584,0,5.5514,5.5522,5.5562,5.556,5.5566,5.5583,5.5591,5.5603,5.5605,5.56,5.5606,5.559,5.5611,5.5582,5.5611,5.5588,5.5594,5.5592,5.5594,5.5593,5.556,5.5607,5.569,5.5697,5.5595,5.5595,5.5594,0,5.5569,5.559,5.5617,5.562,5.5618,5.5631,5.5631,5.5631,5.5638,5.5646,5.565,5.566,5.5664,5.5672,5.5659,5.564,5.5689,5.5659,5.5685,5.5685,5.5694,5.5694,5.5778,5.5702,5.5702,5.5702,5.5701,0,5.5632,5.5657,5.5641,5.5657,5.5685,5.5669,5.5696,5.5694,5.5695,5.5709,5.5689,5.5704,5.5687,5.5699,5.569,5.5714,5.5717,5.5713,5.571,5.5714,5.5714,5.5715,5.5711,5.5704,5.5703,5.5703,5.5702,0,5.5697,5.5688,5.5714,5.5712,5.5711,5.5732,5.5729,5.5743,5.5737,5.5756,5.576,5.575,5.5764,5.5753,5.5766,5.576,5.5792,5.5784,5.5791,5.5788,5.5813,5.5811,5.59,5.591,5.583,5.5831,5.5831,0,5.5736,5.5755,5.5754,5.5763,5.5764,5.5779,5.5786,5.5772,5.578,5.5785,5.5799,5.5811,5.582,5.5844,5.5837,5.5848,5.5839,5.587,5.584,5.5844,5.5837,5.5836,5.5837,5.5875,5.5876,5.5877,5.5877,0,5.5807,5.5802,5.5813,5.5823,5.5832,5.584,5.5845,5.5853,5.5839,5.585,5.5864,5.5871,5.5885,5.5898,5.5906,5.5906,5.5889,5.5887,5.5893,5.5896,5.5899,5.5896,5.5805,5.5885,5.5884,5.5883,5.5883,5.5883,5.5859,5.5874,5.5876,5.5889,5.5893,5.5898,5.5912,5.5908,5.592,5.593,5.5922,5.5939,5.5941,5.5951,5.5953,5.5965,5.5952,5.5962,5.5963,5.5965,5.5968,5.5899,5.5967,5.5967,5.5967,5.5966,5.5966,0,5.5926,5.5927,5.594,5.5948,5.5959,5.5944,5.595,5.5959,5.5975,5.5979,5.5988,5.6005,5.6017,5.6012,5.6023,5.6034,5.6027,5.6037,5.6035,5.6035,5.598,5.5973,5.6043,5.6043,5.6043,5.6043,5.6043,5.6043,5.5963,5.5988,5.5983,5.6009,5.601,5.6026,5.6031,5.6036,5.6039,5.6058,5.6069,5.6066,5.6066,5.6077,5.6088,5.6086,5.609,5.6103,5.6098,5.6047,5.6039,5.6032,5.6025,5.6104,5.6104,5.6152,5.6152,5.6153]}]]